Dewpoint
71 71 71 71 72 72 69 67 57 61 59 54 55 56 55 61 63 63 62 63 62 64 68 64 59 58 60 59 60 63 64 57 62 53 50 62 70 71 71 72 72 72 73 74 74 74 75 76 76 76 77 76 76 76 76 76 76 76 76 76 76 76 76 75 75 76 76 76 76 75 75 75 75 75 74 74 73 74 75 75 75 74 74 74 75 74 74 74 74 74 74 74 74 74 74 74 74
71 71 71 71 71 70 64 67 59 57 58 53 54 58 59 63 62 61 62 63 63 65 66 61 60 64 65 63 63 61 62 65 65 64 67 69 71 71 72 73 73 73 73 74 74 74 75 74 77 77 76 76 76 76 76 76 76 76 76 76 76 76 75 76 75 76 76 76 75 75 74 75 74 74 74 73 73 74 74 74 75 75 76 75 75 75 74 73 74 74 74 74 74 74 74 73 74
71 71 71 73 71 68 67 66 55 55 52 50 52 58 62 59 60 63 64 64 65 66 65 62 63 63 62 61 60 63 58 66 66 66 67 70 68 70 72 73 73 73 74 74 74 74 74 75 77 76 76 76 76 76 76 76 77 76 76 76 76 75 75 75 76 76 75 74 75 75 75 75 75 74 73 73 73 73 75 74 75 75 75 75 75 75 75 74 73 73 74 74 74 74 73 73 73
71 72 70 71 64 69 62 61 58 55 53 52 51 58 60 61 60 64 66 66 65 64 62 61 60 64 63 62 62 64 64 64 66 66 66 68 68 71 72 73 74 74 74 74 74 74 74 76 77 77 76 76 76 77 77 77 76 76 76 76 76 76 76 75 75 75 74 74 75 76 75 74 74 73 73 73 73 73 74 74 74 74 74 74 75 75 75 75 73 73 74 74 74 73 74 74 74
71 71 72 70 67 62 62 59 58 58 53 53 51 59 61 63 64 64 64 64 63 63 62 62 62 64 65 64 64 61 63 66 66 67 67 69 71 72 72 73 73 73 74 74 74 74 75 77 77 76 76 76 77 77 77 76 76 76 75 76 75 76 75 75 75 74 74 74 74 75 75 75 74 73 73 74 74 74 74 74 74 74 74 74 74 74 75 75 73 73 73 74 74 73 74 74 74
72 71 72 71 64 68 64 58 56 56 56 58 55 58 62 63 64 64 62 63 63 63 62 62 62 62 62 64 65 64 65 62 66 67 68 70 71 72 73 73 73 73 73 74 74 74 75 77 77 76 76 76 77 77 76 76 76 76 76 75 75 75 75 75 75 75 75 75 75 75 75 74 74 74 74 74 74 74 75 74 74 74 75 74 74 74 75 75 74 73 74 74 74 74 74 73 74
69 70 69 68 67 67 58 57 56 56 57 60 59 62 63 62 64 62 61 61 61 62 63 62 63 62 61 64 65 66 67 66 66 67 69 71 72 72 73 73 73 73 73 74 74 74 75 76 76 77 76 76 77 76 76 76 76 76 76 76 76 75 75 74 74 75 75 75 75 75 75 74 75 75 74 75 75 75 75 75 74 74 74 74 74 74 74 74 74 73 73 74 74 74 74 74 74
73 68 67 63 61 60 58 58 58 59 60 64 63 63 63 63 66 63 60 62 60 61 62 62 63 64 62 65 62 67 68 69 68 70 71 71 72 72 72 72 72 73 73 74 74 75 76 76 76 76 76 76 76 76 76 76 76 76 75 75 75 75 75 74 74 74 75 75 75 75 74 74 74 74 74 75 75 75 75 75 74 74 74 74 74 74 74 75 75 73 73 73 74 74 74 74 73
71 69 69 64 59 60 58 57 57 62 63 61 61 63 66 67 66 61 61 60 61 61 61 62 61 60 63 63 64 67 69 70 70 71 71 72 72 72 72 72 72 73 73 73 74 75 76 76 76 76 76 76 76 76 76 77 76 76 75 75 75 75 75 75 75 74 74 74 74 74 75 75 74 75 75 75 75 74 75 75 74 74 74 74 74 74 74 75 75 74 72 73 74 74 74 74 73
69 68 62 62 61 55 55 55 54 60 62 64 61 63 66 64 65 67 62 59 60 61 62 63 63 62 64 63 64 67 68 70 70 70 71 72 72 72 72 72 73 73 73 73 74 75 76 76 76 76 76 76 76 76 76 76 76 76 76 75 75 75 75 74 74 74 74 74 74 75 75 75 75 74 75 75 75 75 75 74 74 74 74 74 74 74 74 74 74 74 72 73 73 74 74 74 74
65 68 67 60 57 55 52 52 54 59 61 61 63 66 66 65 65 65 66 59 61 62 63 63 63 63 63 64 65 69 70 70 70 70 71 72 72 72 72 73 73 73 73 73 74 75 76 75 77 76 76 76 76 76 76 76 75 76 75 75 75 75 75 74 74 74 75 75 75 75 75 75 75 75 75 75 75 74 74 74 74 74 74 74 73 74 74 74 74 73 73 74 74 75 74 74 74
63 63 64 58 56 53 53 53 55 57 61 61 62 66 65 64 65 63 62 60 62 62 61 62 62 64 63 63 65 69 69 69 69 70 71 72 71 72 72 73 73 73 73 74 75 75 75 76 76 76 76 76 77 76 76 76 75 75 75 75 75 75 75 75 74 75 75 75 75 75 75 75 75 75 75 75 75 74 74 74 74 74 74 74 74 74 74 74 74 74 73 74 74 74 74 74 74
65 64 60 57 55 54 55 56 56 57 59 58 61 64 64 63 63 64 62 61 62 61 61 64 64 63 61 63 68 68 68 69 70 71 71 71 72 72 72 73 73 73 74 74 74 75 75 75 75 75 75 76 77 77 76 76 75 76 76 75 75 75 75 74 74 75 76 76 76 75 76 75 75 75 74 74 74 74 74 74 73 74 74 74 74 75 74 74 74 74 73 73 73 73 74 74 74
65 64 60 56 57 56 56 56 56 54 53 59 64 64 63 63 63 65 61 60 61 61 62 64 63 64 63 64 65 66 67 69 70 70 71 71 72 72 72 73 73 73 74 74 74 74 75 75 75 75 75 76 76 76 76 75 75 75 75 75 75 75 74 74 74 75 75 76 75 75 75 75 74 73 73 73 74 74 73 73 73 73 73 73 74 75 75 75 74 74 73 73 73 73 73 74 75
65 66 62 59 58 55 57 55 54 54 52 59 62 65 66 67 66 65 63 60 61 63 64 65 64 61 61 62 63 65 67 69 69 70 71 71 72 72 72 73 73 74 74 74 74 74 75 75 75 75 76 76 75 75 75 75 74 75 75 75 75 75 75 75 75 74 74 74 74 74 74 74 74 74 73 73 74 74 75 74 73 73 73 73 74 74 74 74 74 74 74 74 73 74 75 75 75
67 65 63 58 56 55 55 55 55 53 53 61 65 68 66 65 67 64 65 68 62 64 63 62 64 61 62 62 64 66 68 68 69 70 70 71 72 72 72 73 73 74 74 74 74 74 74 75 75 75 75 75 75 75 75 75 75 75 75 75 75 75 75 75 75 74 74 74 74 74 75 75 75 75 73 73 73 73 74 74 75 74 75 75 75 74 74 74 73 73 73 73 74 74 75 75 75
67 68 60 59 55 55 55 53 53 51 56 64 66 66 62 63 65 66 69 69 62 62 62 63 62 65 63 64 66 67 68 69 69 70 70 71 71 72 72 73 73 73 73 74 74 74 74 74 74 74 75 75 75 75 75 74 75 75 75 75 75 75 75 75 75 74 74 74 75 75 78 76 75 76 76 75 74 76 74 74 74 74 74 74 74 74 74 74 74 73 73 73 74 75 75 75 75
67 62 59 57 58 56 56 53 52 55 59 61 64 64 62 61 63 64 67 65 66 62 62 63 64 64 65 66 67 68 68 68 69 69 69 70 71 71 71 72 72 72 73 73 74 74 74 74 74 74 75 75 75 75 75 75 75 75 74 75 76 75 75 75 76 76 75 76 76 76 77 77 74 76 77 77 77 76 75 74 73 74 75 74 74 74 74 74 75 74 74 73 74 74 74 75 76
64 61 59 56 57 58 59 58 58 56 55 61 62 63 61 61 62 64 62 63 62 60 62 63 64 65 66 67 67 67 67 68 68 68 69 69 70 70 70 71 71 72 73 73 73 73 74 74 74 74 75 75 75 75 75 75 75 75 74 75 75 76 76 77 76 77 75 75 75 76 76 75 76 76 77 76 77 75 75 73 72 73 73 74 74 74 74 74 74 74 73 74 73 75 75 74 75
63 61 58 58 59 59 61 58 57 56 59 60 61 62 60 61 62 63 62 61 61 59 62 63 64 64 65 66 67 67 67 67 68 68 68 69 69 69 69 70 70 71 72 72 73 73 74 74 74 74 75 75 75 75 75 75 75 75 75 75 75 75 76 76 75 75 74 74 74 75 75 76 75 75 76 73 75 77 76 73 73 72 72 72 74 77 74 74 74 74 74 74 78 76 74 74 74
63 62 59 59 60 59 59 58 59 57 60 60 61 61 59 61 62 61 62 60 60 60 62 62 63 65 65 66 66 66 66 67 67 68 68 69 69 69 69 70 70 71 72 72 73 73 73 74 74 74 75 75 75 75 75 75 75 75 75 75 75 75 75 75 75 74 74 74 74 75 75 76 74 74 75 75 75 76 76 75 75 76 76 76 78 75 75 76 75 75 75 75 75 75 74 74 74
62 61 61 60 58 58 60 59 59 57 58 59 59 59 58 61 62 61 61 59 58 60 61 63 65 65 66 66 66 66 66 66 67 67 68 68 68 68 69 70 70 71 72 72 72 73 73 74 74 74 75 75 75 75 75 76 75 75 75 75 75 75 75 75 75 74 74 74 74 75 76 75 74 74 75 74 75 75 75 75 75 75 75 76 77 75 75 75 74 74 74 75 74 75 74 74 73
59 60 61 61 61 56 60 58 63 57 56 57 58 59 60 60 61 61 61 59 59 61 62 64 65 66 66 66 66 66 66 66 66 67 68 68 68 68 69 69 70 70 71 71 72 73 73 74 74 74 75 75 75 75 75 76 75 75 75 75 75 75 75 74 75 74 74 74 74 76 75 75 74 74 74 74 73 74 74 74 74 75 75 75 76 74 75 74 74 75 74 74 74 74 74 73 74
60 59 59 59 61 60 60 59 58 58 55 56 57 58 58 59 59 61 60 60 60 61 63 64 65 66 66 66 66 66 66 66 66 67 68 68 68 68 69 69 70 70 71 71 72 72 73 73 74 74 74 75 75 75 75 75 75 74 74 76 75 75 75 74 74 74 74 74 74 75 76 75 74 74 74 74 73 73 74 74 75 75 75 75 76 75 74 74 74 74 75 74 74 74 73 73 73
56 57 57 57 57 59 60 59 58 57 56 55 56 57 56 59 58 61 60 60 60 62 64 64 65 66 66 66 65 66 66 66 66 67 68 68 68 68 69 69 70 70 70 71 72 72 73 73 73 73 74 74 74 75 74 75 74 75 75 75 75 76 75 74 74 75 74 75 74 75 77 74 74 74 74 74 74 73 73 74 74 74 75 75 75 75 74 74 74 74 75 75 74 74 74 74 74
55 56 56 55 55 55 55 55 56 56 56 55 54 55 56 58 60 59 60 60 60 63 64 64 65 65 65 65 65 66 66 66 66 67 67 68 68 68 68 69 69 70 70 71 71 72 72 73 73 73 73 74 74 74 74 75 75 75 74 75 75 76 75 75 74 74 74 74 74 74 76 74 74 73 73 74 74 73 73 74 75 74 74 75 75 74 74 74 74 74 74 75 73 74 74 74 73
53 54 54 54 56 56 54 51 52 55 55 55 53 53 54 57 57 56 60 59 62 63 63 64 65 65 65 65 65 66 66 66 66 67 67 67 68 68 68 68 69 69 70 70 71 72 73 72 72 73 73 74 74 74 74 74 74 74 74 74 75 75 75 75 74 74 74 74 74 74 75 76 74 73 73 74 74 74 73 74 74 74 74 75 75 74 75 75 74 74 74 74 74 73 74 74 75
51 50 50 52 53 53 53 52 51 53 54 54 54 53 53 54 56 54 58 59 62 62 63 63 64 64 64 64 64 65 66 66 67 67 67 67 67 68 68 68 69 69 69 70 71 72 72 72 72 72 72 73 73 73 74 74 74 74 74 74 74 74 75 74 74 73 74 74 74 74 75 75 76 73 73 74 74 74 73 73 74 74 74 74 75 74 74 75 76 75 76 76 75 75 73 73 75
45 45 44 45 46 46 48 48 48 52 51 54 53 52 51 52 53 54 58 60 61 62 63 63 63 63 64 64 64 65 65 66 67 67 67 67 67 68 68 68 68 69 69 69 70 71 71 71 71 72 72 73 72 72 73 73 73 73 73 73 73 74 74 74 73 73 73 74 74 74 75 75 76 74 73 74 76 74 74 73 73 75 74 74 74 75 75 76 76 76 75 76 74 73 73 73 74
44 44 43 42 43 43 45 46 47 51 51 53 52 48 49 51 52 57 59 59 61 62 62 62 63 63 63 64 64 65 65 66 66 67 67 67 67 68 68 68 68 68 69 69 70 70 71 71 71 71 71 72 72 72 72 72 73 73 73 73 74 73 73 73 73 72 73 74 74 74 74 75 75 74 73 73 74 73 73 73 73 74 74 74 74 75 75 75 75 75 75 74 76 74 72 73 72
40 41 42 41 42 42 45 46 49 50 52 52 51 47 48 50 51 58 59 60 60 61 62 62 62 63 63 63 64 64 65 66 66 67 67 67 67 68 68 68 68 68 69 69 69 70 71 70 71 70 71 71 72 71 72 71 72 72 72 72 72 73 72 72 72 72 72 73 74 74 74 75 76 75 73 73 74 73 73 73 73 73 74 74 74 75 74 74 75 74 75 74 73 73 73 74 71
37 38 40 42 41 42 43 44 50 48 52 52 50 47 47 50 51 58 59 59 60 60 61 62 62 62 63 63 63 64 64 65 66 66 67 67 67 67 67 67 68 68 68 68 69 70 70 70 70 69 70 71 71 71 71 71 71 71 72 72 71 72 72 71 72 72 72 73 74 74 74 75 76 75 74 73 73 73 73 73 73 73 74 74 74 75 75 74 74 74 75 73 72 72 75 72 72
35 35 36 37 42 41 41 40 47 49 52 52 49 47 49 48 51 58 59 59 59 60 61 61 62 62 63 63 63 64 64 64 65 66 66 66 67 67 67 67 67 68 68 68 69 69 69 69 70 69 69 70 71 71 71 70 70 70 71 71 71 71 71 71 72 72 72 72 73 73 74 75 75 75 75 74 73 73 73 73 73 73 75 74 74 75 75 74 74 73 74 75 73 73 72 71 71
30 35 33 35 40 39 39 37 37 48 51 50 50 48 47 49 55 58 58 59 59 59 60 61 61 62 62 63 63 63 64 64 64 65 65 66 66 67 67 69 68 67 68 68 69 69 69 69 69 69 69 69 70 71 70 70 69 70 70 70 72 70 70 71 71 72 72 72 73 73 73 74 75 75 74 74 73 73 73 73 73 74 75 74 74 75 75 75 74 74 73 74 74 73 72 71 71
31 32 35 34 35 35 35 35 36 46 50 50 50 49 48 49 56 58 58 58 58 58 59 60 61 61 62 62 62 63 63 63 64 64 65 66 66 66 67 68 67 67 67 67 68 69 69 69 69 69 69 69 70 70 71 70 69 69 69 69 70 71 71 71 71 72 72 72 72 73 74 74 76 75 74 74 73 74 74 73 73 74 75 74 74 74 74 75 74 74 73 73 75 73 73 71 71
32 33 34 35 34 34 34 35 37 47 49 48 49 49 49 48 56 57 58 58 58 58 59 59 60 60 61 61 62 62 63 63 64 64 64 65 66 66 66 67 67 67 67 67 69 69 69 69 69 69 69 69 70 70 70 69 69 68 67 68 69 70 71 71 71 71 72 72 73 73 74 74 75 75 74 74 74 74 74 74 74 75 75 74 74 74 74 74 74 74 73 72 73 75 75 73 72
34 35 34 34 34 34 35 36 37 47 48 48 48 49 49 48 54 57 57 58 58 58 58 58 59 59 60 60 61 62 62 63 64 64 64 64 65 65 66 67 67 67 67 67 68 68 69 69 69 68 69 69 69 69 70 69 68 68 67 67 67 68 70 70 71 71 72 72 73 73 74 74 74 75 75 74 73 75 74 74 74 75 75 74 74 74 74 74 74 74 74 75 74 74 73 74 72
29 30 31 33 33 33 34 35 36 40 46 46 48 48 49 48 51 57 57 57 57 57 57 58 58 59 59 60 60 61 62 63 63 63 64 64 64 65 65 66 67 66 67 67 67 68 68 69 69 68 69 69 69 69 69 69 69 68 67 66 66 66 69 70 70 70 71 73 73 73 74 74 74 74 76 74 74 74 73 74 74 75 75 75 74 75 74 75 74 74 74 74 75 73 73 72 71
28 29 30 29 29 32 32 32 35 37 43 42 44 47 48 48 48 56 57 57 57 57 57 58 58 58 59 59 60 61 61 62 62 63 63 64 64 64 65 65 66 66 66 66 67 68 68 68 69 69 69 69 69 69 69 69 69 69 68 68 67 67 69 70 70 71 72 73 73 73 74 74 73 73 75 75 73 74 73 74 74 75 75 75 75 75 75 74 74 74 74 73 73 73 74 74 72
28 29 29 28 31 29 30 33 34 34 37 39 41 44 46 47 48 53 57 57 57 58 58 58 58 58 58 58 59 60 61 61 62 62 63 63 64 64 64 65 65 66 66 66 67 67 68 69 69 69 69 69 69 69 70 70 70 70 70 69 69 69 70 72 71 71 72 73 73 73 74 74 73 73 74 75 74 74 74 74 74 75 75 75 75 74 74 74 74 74 74 74 73 71 71 72 73
31 30 30 29 29 28 30 32 31 33 33 36 42 44 44 47 46 48 55 58 57 57 58 58 58 58 58 59 59 59 60 61 61 62 62 63 63 64 64 65 65 65 66 66 66 67 67 68 69 69 69 69 69 70 70 70 70 70 70 71 71 71 72 71 70 70 70 72 72 73 73 74 74 73 73 75 75 74 74 74 74 75 75 75 75 75 74 74 74 74 74 74 73 72 71 71 73
30 31 31 31 30 29 28 30 29 30 31 33 36 34 37 44 46 46 50 56 57 57 57 57 57 58 58 58 58 59 59 60 61 62 62 63 63 64 65 65 65 65 65 66 66 67 67 68 68 69 69 69 69 69 70 70 70 69 69 69 69 69 69 69 69 69 69 70 71 72 73 74 74 74 74 74 75 74 74 74 74 74 75 75 75 75 75 74 74 73 74 74 73 72 72 71 71
30 30 31 31 30 28 28 28 29 30 30 34 37 31 31 41 45 47 50 54 56 57 57 57 57 58 58 58 58 58 58 59 60 61 62 62 63 63 64 65 65 65 65 66 67 67 67 68 68 69 69 69 69 69 70 71 69 69 69 68 68 68 68 69 70 70 69 70 71 72 73 74 74 74 74 74 75 75 74 74 74 74 75 75 76 75 74 74 74 74 74 74 74 74 72 71 71
29 32 32 30 29 28 27 27 28 31 36 34 32 35 33 33 38 46 50 52 54 55 56 57 57 57 57 58 58 58 58 58 59 60 61 62 63 63 64 65 65 65 66 66 66 67 67 68 68 68 69 70 70 69 70 70 69 69 69 69 69 68 67 68 69 70 71 71 71 71 72 74 74 74 74 74 74 75 74 74 74 74 75 75 76 75 74 74 75 75 75 75 74 75 73 72 71
29 30 30 29 29 29 28 26 27 29 28 26 29 37 30 36 39 46 49 50 52 54 55 56 57 57 57 58 58 58 58 59 59 59 60 61 62 63 64 64 65 66 66 66 66 67 68 68 68 68 69 70 70 70 70 70 70 69 69 69 68 69 69 69 71 71 71 72 71 72 72 73 74 74 74 74 74 75 75 74 74 74 74 75 76 75 75 74 75 75 75 75 74 74 73 73 72
31 29 30 28 28 28 27 26 26 28 28 26 28 29 27 28 36 43 48 49 50 52 54 55 56 57 57 57 58 58 58 59 59 59 59 60 61 63 63 64 65 66 66 67 67 67 67 68 68 68 68 69 69 69 70 70 70 70 69 69 68 69 69 70 70 70 70 71 71 71 72 73 73 74 74 74 74 74 75 75 74 74 75 74 76 76 75 75 75 75 75 75 75 74 74 73 72
31 31 30 28 27 27 34 28 29 30 25 26 26 29 27 26 31 36 46 47 49 51 53 55 56 57 57 57 58 58 58 59 59 59 59 60 60 62 63 64 65 65 66 67 67 67 67 68 68 68 68 69 69 69 69 69 69 70 69 69 69 68 69 69 69 69 70 70 70 71 72 72 73 74 74 74 74 74 74 75 74 74 74 75 76 76 76 75 75 75 75 75 75 75 74 73 73
31 29 29 29 29 29 30 31 32 24 23 28 26 27 29 26 30 36 44 47 48 50 51 53 54 55 57 57 57 58 58 58 59 59 59 59 60 61 62 63 64 65 66 66 67 67 68 68 68 68 68 69 69 69 69 69 69 69 69 69 69 69 69 69 69 69 69 69 70 70 72 72 73 73 74 74 74 73 74 74 75 74 75 75 75 76 76 76 76 76 76 75 75 75 75 74 73
31 30 30 28 27 27 25 27 24 23 23 29 26 26 28 27 28 33 38 44 47 49 50 52 53 54 56 57 57 58 58 58 59 59 59 59 59 60 61 63 64 65 65 66 66 67 67 68 68 68 68 69 69 69 69 69 69 69 69 69 69 69 69 69 69 69 69 69 69 70 71 72 72 73 73 73 73 74 74 74 74 74 74 75 75 76 76 76 76 76 76 75 75 75 74 74 73
30 30 29 28 26 24 23 24 25 23 28 29 28 27 24 32 29 29 29 39 46 48 49 51 53 54 55 56 57 57 58 58 58 59 59 59 60 60 60 62 63 64 65 65 66 67 67 67 68 68 68 69 69 69 69 69 69 69 70 70 69 70 69 69 69 69 69 69 70 69 70 71 72 72 73 73 73 73 74 74 74 74 74 75 75 75 76 76 76 76 76 75 75 75 75 74 74
30 31 29 29 28 26 23 24 21 20 25 26 27 25 27 24 29 29 29 31 40 47 48 50 51 53 54 55 56 57 57 58 58 59 59 59 60 60 60 61 62 63 64 64 65 66 67 67 68 68 68 69 69 69 69 69 69 69 70 70 70 70 69 69 70 70 70 69 69 69 70 71 71 72 73 73 74 74 74 74 74 74 74 75 75 75 76 76 76 76 76 76 75 75 75 74 73
30 31 31 30 28 33 25 27 24 23 23 22 26 25 29 26 35 40 34 30 35 43 47 50 50 51 53 54 55 56 57 57 58 58 59 59 60 60 60 60 61 62 64 64 65 66 66 67 68 68 68 69 69 70 69 69 69 69 70 70 70 70 70 70 70 71 70 70 70 70 70 70 71 72 73 73 73 73 73 74 74 74 74 74 75 75 75 75 76 75 75 75 75 75 75 74 74
30 30 29 29 30 28 29 36 36 27 24 21 26 24 25 22 25 22 26 34 34 39 43 47 49 50 51 52 54 55 56 57 58 58 59 60 60 60 60 60 60 61 62 63 65 66 66 67 67 68 68 68 69 70 69 70 70 70 70 70 70 70 70 69 69 69 69 70 70 70 69 69 71 72 72 73 73 73 73 73 73 73 74 74 75 75 75 76 76 75 75 75 75 75 75 74 74
31 28 29 31 32 31 30 26 25 23 20 22 24 21 23 22 23 31 31 34 35 37 40 44 48 49 49 51 52 54 55 56 57 58 59 59 60 60 60 60 60 61 61 63 64 65 66 67 67 67 68 68 68 69 69 69 70 70 70 70 70 70 69 69 69 69 70 70 70 70 70 70 69 71 72 73 73 73 73 74 73 73 74 74 74 75 75 75 75 75 75 75 75 75 75 75 74
30 29 30 28 28 27 29 30 25 23 22 20 19 27 26 23 25 28 25 32 34 37 39 42 45 47 48 49 51 53 54 55 56 57 58 59 59 60 60 60 60 61 62 62 63 64 65 66 67 67 67 67 68 68 69 70 70 70 70 70 70 70 70 70 70 70 70 70 69 69 69 70 69 71 72 73 73 73 73 73 73 73 74 74 74 74 75 75 75 75 75 75 75 75 75 74 74
30 31 30 32 30 29 28 28 28 27 23 21 20 20 18 25 23 21 22 29 33 34 37 40 42 45 47 48 50 51 53 54 55 56 57 58 59 59 59 59 59 60 61 62 62 63 64 65 66 66 67 68 68 68 69 69 69 69 70 70 70 70 71 70 70 70 70 70 70 69 69 69 70 71 71 72 73 73 73 73 73 73 73 73 74 74 74 75 75 75 75 74 75 75 74 74 74
28 27 29 30 31 30 31 27 26 27 25 20 19 17 23 25 27 22 22 25 31 33 36 39 41 43 45 47 49 51 52 53 54 55 56 58 59 59 59 60 60 60 61 62 62 62 63 64 65 66 67 67 67 68 69 69 69 70 70 70 70 70 70 70 70 70 70 70 70 70 70 70 71 70 71 72 72 72 73 73 72 73 73 73 74 74 75 75 75 75 75 75 75 74 74 74 74
30 26 26 29 28 27 27 27 22 24 25 21 20 20 26 23 31 22 22 23 25 31 35 38 40 41 43 46 48 50 51 53 53 54 55 56 58 59 59 60 60 60 61 61 62 62 63 64 64 65 66 66 67 67 69 69 70 70 69 70 70 70 70 70 70 70 70 69 70 70 70 71 70 71 71 71 72 72 72 72 72 73 73 73 73 74 74 75 75 75 74 74 74 74 74 74 74